Location: Unspecified
(51.0950°N, 12.9690°E)
Time: 13:08:18
(UTC+00:00)

PRISM - Visible Passes

Search period start: 13 April 2024 00:00
Search period end: 23 April 2024 00:00
Orbit: 509 x 529 km, 98.2° (Epoch: 12 April)

Date Brightness Start Highest point End Pass type
(mag) Time Alt. Az. Time Alt. Az. Time Alt. Az.
13 Apr ? 18:42:39 10° SSE 18:46:25 88° WSW 18:50:12 10° NNW visible
14 Apr ? 20:05:08 10° WSW 20:06:58 13° W 20:08:48 10° WNW visible
15 Apr ? 19:50:13 10° SW 19:52:52 18° W 19:55:31 10° NW visible
16 Apr ? 19:35:37 10° SSW 19:38:45 25° W 19:41:53 10° NW visible
17 Apr ? 19:21:11 10° SSW 19:24:38 35° W 19:28:06 10° NNW visible
18 Apr ? 19:06:52 10° S 19:10:31 49° W 19:14:10 10° NNW visible
19 Apr ? 18:52:38 10° S 18:56:23 73° WSW 19:00:08 10° NNW visible
20 Apr ? 20:15:47 10° WSW 20:16:48 11° W 20:17:50 10° WNW visible
21 Apr ? 20:00:12 10° SW 20:02:28 15° W 20:04:45 10° NW visible
22 Apr ? 19:45:14 10° SW 19:48:09 21° W 19:51:04 10° NW visible
